Погода в Серинхисаре

Турция     37°34′50″N   29°15′49″E
темп.,
°C
ветер,
м/с
пор.,
м/с
влажн.,
%
обл.,
%
осадки,
мм/ч
давл.,
гПа
погр.,
м
25 января, вт
вт2500:00−9всв2396100 1.3 1023113
03:00−7св51194100 4.4 1021654
06:00−9св3693100 1.8 1020204
09:00−8св2395100 4.2 102198
12:00−6ссв3393100 1.7 1019279
15:00−6с4493100 4.1 1017332
18:00−7ссз3496100 1.4 1017211
21:00−9ссз2295100 2.4 102022
26 января, ср
ср2600:00−11ссз339686 0.2 102118
03:00−12с339686 0.3 102023
06:00−13с3496100 0.1 102032
09:00−11с469565 0.3 1020141
12:00−8с578697 0.1 1020634
15:00−7с598695 0.3 1019791
18:00−9с349661 0.5 1020103
21:00−11ссз339645 0.8 102329
27 января, чт
чт2700:00−15ссз229839 0.0 102612
03:00−16ссз229955 0.0 102811
06:00−18ссз1210092 0.0 102810
09:00−16с129978 0.0 103013
12:00−7ссв45805 0.0 1026400
15:00−5с448020 0.0 1024465
18:00−10с339340 0.0 102714
21:00−14ссз229851 0.0 103011
28 января, пт
пт2800:00−16ссз1110065 0.0 103010
03:00−16юз0110078 0.0 103110
06:00−17ю119984 0.0 103110
09:00−16юв119462 0.0 103122
12:00−7в11645 0.0 1027122
15:00−4вюв10655 0.0 1024174
18:00−8вюв00843 0.0 102510
21:00−11ю11843 0.0 102810
29 января, сб
сб2900:00−13ю117918 0.0 103010
03:00−14ююв117016 0.0 103110
06:00−15ююв116920 0.0 103110
09:00−13ююв117198 0.0 103114
12:00−5юв2263100 0.0 1027102
15:00−2ююв2282100 0.0 1025162
18:00−5ююв1188100 0.0 102610
21:00−7ю1189100 0.0 102810